RH
79 82 87 92 92 90 87 86 87 92 93 86 82 82 81 82 78 82 94 94 79 78 74 80 75 76 81 72 53 57 64 66 81 64 60 65 64 64 68 69 87 92 96 96 89 96 63 58 57 44 31 48 47 51
80 83 87 92 93 91 85 87 88 93 94 92 86 81 80 81 79 75 81 93 90 82 68 89 88 86 82 73 62 80 50 67 71 67 77 72 68 84 65 42 80 62 64 72 76 67 51 60 51 52 52 52 53 54
82 83 88 92 93 92 85 87 88 92 94 90 89 84 78 78 78 79 96 98 92 87 74 79 86 80 72 79 79 71 83 77 79 76 79 78 65 68 65 65 62 58 64 63 55 57 52 45 50 53 51 50 50 59
82 83 88 93 93 93 89 88 89 92 93 92 91 88 81 79 79 83 94 97 95 93 81 75 76 84 78 76 77 78 75 87 85 85 81 79 66 65 62 59 60 49 62 59 59 47 53 49 58 65 64 66 67 66
83 84 88 92 94 94 91 90 91 93 92 90 86 91 85 82 76 86 95 96 94 84 83 87 85 82 85 82 81 84 81 85 89 86 90 84 88 83 93 90 92 64 53 52 55 50 61 61 62 65 65 60 59 72
84 85 87 92 95 94 92 90 92 92 88 90 80 87 90 84 83 89 90 88 92 91 89 94 88 88 86 88 89 89 91 92 92 85 89 91 86 85 91 85 69 75 65 62 65 70 66 65 70 71 70 63 61 69
84 86 88 91 95 95 92 91 93 94 92 88 82 87 90 83 91 94 92 88 83 93 91 92 95 89 87 90 94 94 92 96 93 93 94 94 93 92 94 95 71 70 70 72 75 73 56 69 59 66 70 62 64 72
86 86 88 91 96 96 91 91 93 93 90 86 87 92 88 86 87 94 95 85 90 93 92 96 94 91 87 93 94 97 96 95 95 95 97 96 94 96 99 86 81 80 75 75 76 74 70 68 69 60 61 64 71 67
88 88 88 92 96 95 92 92 92 90 88 90 93 89 87 92 96 96 80 84 95 89 96 94 98 92 90 97 96 95 95 96 96 97 97 94 96 98 88 81 81 80 76 71 73 63 59 63 64 65 66 66 72 67
90 88 91 93 95 94 92 91 90 88 89 92 90 96 97 97 82 81 87 91 95 96 97 94 98 98 92 96 97 96 96 98 99 94 96 96 95 84 77 78 80 79 76 70 64 69 67 71 70 68 69 71 76 78
91 92 94 96 96 93 91 89 87 91 87 94 99 98 98 82 91 94 98 95 95 94 97 97 96 98 94 94 96 94 97 97 94 92 94 88 96 83 76 67 66 59 66 62 65 64 66 71 74 72 71 72 74 74
96 97 98 97 95 93 92 92 92 94 96 91 92 89 91 92 98 96 99 97 97 93 95 98 97 97 96 95 96 97 97 94 94 94 95 91 88 77 71 66 65 64 72 63 69 63 64 65 71 76 79 76 73 73
97 98 96 95 94 92 91 92 90 86 85 90 92 98 94 98 99 99 92 92 92 95 99 99 99 96 96 94 97 96 97 94 94 97 91 93 80 72 70 68 70 71 75 73 71 72 72 75 76 81 80 76 80 81
95 95 94 94 92 92 92 93 89 90 91 95 94 99 92 99 97 94 93 94 94 97 99 93 99 98 96 97 95 98 90 89 96 97 96 93 78 70 70 75 79 74 74 79 80 76 76 80 82 84 83 82 86 81
88 88 88 88 89 93 95 93 92 95 93 98 95 95 99 91 97 96 97 98 97 96 97 96 98 94 99 98 87 92 98 96 90 94 94 90 75 72 72 72 77 78 78 82 80 82 81 82 83 82 84 86 88 82
89 88 91 88 90 90 95 94 96 95 98 95 97 96 91 95 98 99 100 98 97 96 98 97 97 96 99 95 96 90 91 89 89 95 95 86 79 78 78 76 77 78 81 78 77 76 78 86 84 75 76 80 82 82
77 96 80 78 83 92 88 94 96 96 96 97 97 93 95 97 97 97 95 96 98 99 99 98 98 94 95 97 98 96 91 91 93 95 96 82 78 79 82 83 84 83 83 86 87 87 86 78 82 88 87 75 77 80
94 89 78 80 86 84 95 96 95 96 99 99 97 98 98 89 92 94 95 97 97 98 97 96 94 100 99 96 96 92 97 96 95 89 82 84 87 87 74 72 66 75 81 83 86 83 83 88 87 86 84 82 82 82
92 86 79 78 80 91 96 99 94 95 97 98 97 96 94 91 90 90 92 96 95 94 95 99 99 100 96 94 92 93 93 94 83 63 64 66 70 70 69 77 81 84 84 81 78 73 70 72 77 79 79 80 87 85
78 81 79 74 72 93 99 100 97 95 99 96 98 99 98 97 95 95 96 98 98 98 99 97 96 81 86 73 81 70 63 60 71 70 64 54 54 72 75 75 68 68 73 74 78 74 77 80 82 80 80 84 90 89
87 88 83 88 99 94 95 98 97 97 98 98 99 98 98 98 100 100 99 99 100 100 98 93 81 64 62 53 50 53 55 63 63 61 60 61 53 59 65 66 78 76 77 76 77 75 75 81 77 75 79 82 81 81
96 82 98 91 95 97 95 96 94 98 98 99 100 98 100 100 98 98 99 100 99 94 90 70 62 63 61 58 54 58 61 65 67 66 63 62 69 68 68 70 76 81 81 81 77 78 78 76 76 78 82 83 81 84
86 93 98 98 95 93 92 97 90 95 99 99 98 99 97 98 99 97 100 99 96 90 78 69 61 62 65 60 65 69 68 68 66 63 60 59 58 62 68 69 71 80 82 77 76 83 85 77 77 79 80 80 84 88
88 97 99 99 95 94 98 98 98 99 97 96 94 99 100 100 98 100 97 93 77 80 81 70 71 68 65 70 74 68 64 62 66 66 63 65 72 68 63 66 66 70 76 76 78 81 81 80 78 79 79 85 88 90
98 99 97 98 100 97 97 99 98 96 94 89 98 100 98 99 98 100 99 86 89 67 64 72 75 68 67 62 57 56 53 58 63 64 58 61 65 66 69 67 64 62 70 82 82 83 84 83 82 80 81 90 91 90
96 97 95 93 99 93 91 98 97 97 97 99 100 98 100 99 100 92 91 84 64 66 66 66 58 58 59 59 60 57 52 49 69 68 61 58 60 66 73 72 69 62 62 74 79 82 84 82 81 78 77 81 82 83
97 97 98 92 90 91 96 92 90 97 100 97 94 100 100 99 93 82 75 87 75 77 64 60 62 62 59 53 48 48 48 52 59 53 48 51 54 56 66 71 69 59 52 59 80 79 77 75 74 75 77 81 90 89
97 96 95 98 99 97 99 99 95 93 86 86 89 100 91 87 79 65 77 80 72 68 76 67 68 63 61 60 56 55 57 57 60 63 63 66 70 69 67 65 63 64 64 65 68 71 73 76 79 79 83 87 88 87
97 93 92 97 98 99 93 91 90 88 70 83 85 85 80 76 67 77 59 59 82 88 81 67 60 65 68 67 66 68 72 75 80 83 83 80 73 69 67 69 72 76 78 78 73 72 78 85 85 86 87 89 90 90
98 95 95 97 95 94 89 84 85 82 82 74 71 82 68 63 54 53 77 62 66 66 65 65 67 73 73 72 72 70 69 72 75 80 85 81 74 67 70 76 78 78 78 85 87 86 82 83 87 93 95 94 96 93
96 96 96 96 95 90 84 91 88 69 86 92 90 80 63 61 54 52 56 58 62 66 69 70 71 72 75 76 79 81 79 73 80 76 75 72 72 76 79 76 76 78 80 90 93 90 86 91 94 94 94 93 94 90
100 95 94 96 92 92 95 92 94 92 94 98 73 95 94 91 90 53 68 61 67 70 69 69 75 73 69 71 73 75 72 74 76 75 78 78 81 81 94 89 83 82 84 94 95 90 91 95 95 95 93 96 95 94
98 99 99 97 94 87 93 85 91 95 97 98 88 79 82 84 80 77 86 80 74 66 65 65 68 70 74 79 78 80 76 81 83 79 81 86 84 81 79 81 83 83 88 90 90 91 98 97 96 95 96 96 95 95
Wind_Speed
17 17 15 14 13 11 8 7 6 5 4 2 2 4 8 10 9 2 1 1 2 2 3 3 0 3 2 2 4 4 3 1 3 2 3 3 3 4 2 4 6 8 7 5 4 2 6 6 3 1 2 4 5 5
20 18 16 16 15 13 10 8 7 7 5 4 3 2 4 7 10 3 2 2 1 3 1 1 1 1 1 1 5 0 3 3 4 4 0 2 2 1 4 3 1 3 7 6 10 7 2 2 2 3 2 5 7 5
21 19 16 16 15 15 12 10 8 7 6 5 4 2 1 4 7 4 2 2 2 2 2 2 1 2 2 3 2 3 2 2 2 3 4 2 3 4 3 6 2 5 4 3 1 2 5 8 3 3 3 6 7 9
22 20 18 18 17 16 13 11 9 8 6 4 5 5 3 2 5 3 3 1 2 2 2 2 1 2 2 3 2 1 4 3 4 1 2 3 3 4 3 2 3 3 4 3 5 4 5 2 0 5 6 5 8 8
23 22 20 19 19 17 15 12 10 9 8 6 5 6 5 4 7 6 2 2 1 4 2 2 2 4 4 2 3 3 3 3 2 2 1 3 2 3 1 0 5 5 5 4 3 3 1 7 6 8 8 11 11 9
24 23 21 20 19 18 16 14 12 10 9 7 5 1 8 6 5 3 3 2 2 1 3 1 2 2 5 5 7 5 3 2 2 3 2 2 2 2 3 4 3 3 3 5 4 3 6 9 7 3 6 10 11 10
26 24 23 21 20 20 18 16 14 12 11 9 6 3 10 7 2 2 3 2 1 2 3 3 3 2 1 2 3 2 2 2 2 2 1 1 2 2 2 4 2 5 5 3 2 1 1 3 4 9 8 9 10 9
26 25 24 21 21 21 20 18 16 13 11 10 7 11 13 13 8 2 3 3 2 4 3 2 3 2 0 1 1 2 2 2 3 2 1 2 1 0 5 6 4 2 3 5 3 4 4 7 7 8 7 7 8 9
26 26 24 23 21 23 22 20 18 14 12 10 14 13 4 3 2 2 1 4 2 3 3 2 3 3 1 1 1 1 1 2 1 0 2 2 2 7 5 5 3 2 2 2 4 5 5 5 9 8 6 7 6 10
27 26 25 23 24 25 24 22 20 17 15 17 3 2 1 1 2 2 3 2 4 3 2 2 1 3 3 0 0 2 1 1 2 2 2 2 5 4 7 5 2 1 3 3 0 4 3 6 7 8 7 7 7 9
25 24 24 25 26 26 26 24 21 20 14 2 3 2 1 1 3 3 1 1 1 2 2 1 3 3 2 3 3 1 2 1 2 3 2 3 4 3 1 3 3 3 2 1 4 5 6 7 7 8 9 7 7 9
24 22 24 25 26 26 26 25 26 8 4 6 7 6 2 2 2 4 3 1 3 4 2 3 2 3 1 0 3 1 3 2 4 0 2 4 4 3 1 4 4 2 2 4 3 8 9 8 8 7 8 9 9 9
23 24 25 25 25 25 25 25 18 21 10 4 4 4 3 1 3 7 7 4 3 3 3 2 2 2 1 1 3 2 3 3 1 2 4 5 2 2 0 3 3 3 3 5 6 6 8 9 8 6 9 10 10 10
27 26 25 23 23 23 23 24 26 11 5 3 5 6 5 5 5 5 4 4 3 3 3 2 2 2 1 2 3 4 1 2 3 4 6 3 3 3 3 3 2 6 7 8 9 9 9 9 9 9 10 9 9 12
29 26 23 19 13 14 23 24 14 4 3 3 4 5 5 3 1 2 2 2 1 3 3 2 2 2 1 3 2 3 3 4 5 6 4 4 5 4 4 4 7 8 8 7 7 8 9 10 11 13 8 8 9 13
26 20 10 17 17 19 21 12 5 3 3 3 2 3 1 2 1 2 1 1 3 4 2 2 3 3 3 1 4 6 4 6 5 4 3 3 4 5 7 7 8 7 8 9 8 10 11 10 12 14 13 12 12 12
12 4 15 13 13 18 14 5 3 4 4 3 0 2 3 2 3 2 3 3 3 3 2 2 2 6 2 2 3 4 6 4 4 3 3 5 6 7 7 7 8 8 8 8 9 8 9 11 11 10 15 16 13 13
4 7 19 18 9 7 4 5 4 3 3 1 3 3 2 2 3 2 2 3 4 2 2 3 4 2 4 5 5 4 3 4 3 5 6 6 7 8 7 9 9 7 8 8 8 10 9 10 11 10 13 13 12 12
7 9 19 14 7 5 4 2 3 4 2 1 2 1 1 1 1 2 3 3 2 2 4 2 1 4 5 3 4 4 4 5 5 6 7 6 6 8 10 8 8 8 9 9 10 10 11 14 10 11 12 10 10 11
15 19 16 11 5 4 4 2 1 4 3 2 2 1 1 1 2 2 3 2 3 3 2 4 6 5 7 7 6 9 9 8 6 8 10 9 6 6 8 8 8 10 10 11 10 16 11 9 8 10 9 9 9 12
10 6 9 5 4 4 4 3 2 2 3 2 2 2 0 1 1 1 1 3 3 4 4 6 7 8 8 10 9 9 10 6 8 8 12 12 11 8 9 9 8 8 9 9 11 12 13 10 11 10 9 11 10 10
3 9 4 5 4 3 4 1 4 2 3 2 2 1 1 1 2 3 2 2 5 5 5 5 8 10 11 12 12 10 10 9 9 9 17 16 11 11 10 10 8 10 9 11 10 10 10 10 10 10 9 11 13 10
9 5 3 4 4 2 3 1 3 3 3 2 3 2 3 3 3 1 1 4 6 5 6 7 11 13 11 14 10 10 11 14 11 12 13 12 11 11 10 10 9 10 11 12 9 9 10 15 14 13 10 10 9 11
6 4 5 4 3 4 1 3 2 3 3 3 4 3 4 4 2 1 5 5 6 3 4 10 6 8 8 9 8 11 13 10 9 10 11 11 9 12 11 9 9 10 10 11 10 9 10 11 16 11 11 10 9 11
7 7 6 5 2 5 5 4 4 4 4 5 4 5 4 2 3 4 6 6 3 5 7 5 6 9 11 12 11 12 17 10 9 11 14 10 11 11 10 10 11 12 9 10 12 11 12 10 11 12 12 8 11 14
7 7 11 9 4 7 7 8 8 7 5 6 8 2 2 4 3 8 6 5 5 6 6 8 9 9 9 11 12 11 14 10 6 10 15 12 10 11 13 13 13 14 10 9 11 12 13 13 15 16 13 11 15 16
7 5 4 1 5 5 3 3 2 5 7 8 5 6 4 4 8 8 5 4 4 6 7 8 9 10 12 13 12 13 12 11 12 14 14 13 12 12 12 14 17 16 12 12 8 12 14 15 16 15 13 10 6 9
2 4 8 7 2 1 6 4 6 8 6 4 6 7 10 12 10 6 6 5 7 7 6 8 9 11 11 13 12 12 13 12 13 12 11 11 11 12 12 12 15 27 16 15 12 12 13 13 14 14 13 13 10 10
3 4 5 4 2 2 5 7 7 5 5 7 8 6 8 7 5 3 6 7 3 3 6 11 14 7 9 9 10 10 9 9 9 16 21 17 15 12 10 10 10 10 10 11 17 18 15 13 14 12 13 11 9 9
4 3 4 4 7 7 7 9 6 4 3 5 4 3 5 6 10 9 5 9 10 12 13 13 10 8 11 11 13 14 9 9 9 11 13 16 15 13 10 8 9 9 8 8 9 10 16 13 9 5 7 5 4 7
4 3 4 3 5 7 7 2 2 2 1 3 3 6 13 10 11 13 12 14 12 12 12 13 12 10 10 12 10 10 12 6 8 14 16 14 15 14 13 13 10 9 8 8 9 10 10 7 6 7 9 11 10 10
3 6 6 6 6 4 1 4 3 4 4 2 8 1 4 2 7 8 6 7 8 9 14 13 10 13 12 10 9 8 16 11 12 11 15 12 13 13 12 11 11 10 10 9 10 11 9 8 8 9 10 10 9 9
3 2 2 2 4 5 3 4 2 4 2 3 6 7 7 7 9 7 4 5 6 9 10 11 11 9 9 8 9 8 10 9 13 18 21 23 24 21 13 8 8 9 10 10 10 9 7 10 10 11 10 10 10 8
Wind_Direction
222 225 213 203 197 202 214 242 255 260 251 263 331 0 3 8 21 89 189 8 103 134 273 185 42 129 92 116 150 195 76 352 62 130 160 204 165 217 182 186 181 171 153 192 160 207 285 178 102 240 225 311 270 272
216 219 211 201 198 198 204 227 240 238 243 236 257 333 11 10 16 94 54 347 27 126 227 344 24 22 3 152 137 185 176 161 177 100 200 107 190 133 172 244 9 240 191 180 189 211 280 222 238 114 184 261 285 292
210 212 209 199 199 200 199 212 226 227 226 225 223 246 344 20 27 77 125 353 32 73 355 57 36 14 56 28 318 128 283 170 158 166 152 162 235 135 186 247 243 237 160 221 16 175 217 255 241 235 272 273 281 280
206 211 205 205 200 198 201 197 206 213 209 222 223 198 193 45 43 91 94 336 90 99 107 284 293 47 327 350 160 139 137 60 85 62 125 150 181 163 218 226 210 215 131 175 267 295 309 115 20 321 311 283 289 288
206 207 204 203 202 192 192 188 192 195 193 201 209 183 178 128 96 83 73 51 138 126 203 259 345 2 352 356 93 73 106 110 108 76 86 231 144 126 161 94 243 178 185 158 235 224 193 274 308 320 335 329 324 318
202 204 201 201 201 189 184 182 181 187 177 186 204 185 159 140 131 81 26 350 347 80 88 1 297 16 26 54 77 77 66 83 100 143 221 289 283 133 166 227 268 147 155 177 216 177 230 265 271 249 306 308 309 308
199 199 201 198 198 190 177 178 175 175 174 183 191 104 143 124 79 111 179 217 350 2 78 339 338 326 38 53 16 48 60 109 118 141 190 171 270 186 224 229 184 149 194 240 230 256 274 339 313 312 289 282 291 278
198 197 198 195 193 185 173 173 170 173 177 183 176 127 117 108 103 45 339 12 94 94 62 115 268 23 37 77 65 343 47 30 27 148 87 186 351 118 254 236 222 159 56 121 69 6 242 288 310 306 303 305 323 332
198 196 195 191 187 182 171 166 166 161 166 147 130 125 107 60 112 199 84 60 28 129 160 175 182 229 28 82 94 54 65 82 348 111 254 122 209 223 232 201 173 134 131 143 311 309 303 295 298 308 310 316 318 320
194 192 190 190 189 178 168 161 158 158 142 132 99 132 146 114 163 60 13 42 27 344 33 212 91 210 101 78 89 102 10 145 140 223 110 219 260 255 245 230 230 166 157 154 26 345 307 295 306 309 300 287 264 278
191 188 187 184 180 172 163 158 153 143 131 137 135 115 130 304 76 48 20 86 42 271 185 186 179 192 235 130 162 204 175 177 217 246 189 227 256 247 81 116 129 119 134 172 220 253 246 248 276 286 295 267 269 278
184 185 180 172 168 163 159 157 155 156 154 143 118 106 120 82 80 89 227 252 207 228 206 170 187 196 247 23 102 203 143 154 229 169 223 248 248 246 193 111 105 75 332 304 286 288 284 276 266 271 280 287 294 289
175 169 161 157 153 159 153 158 149 124 103 64 68 98 128 264 161 185 191 203 207 178 180 155 183 174 89 85 75 109 167 213 82 203 240 236 293 331 150 61 31 342 303 271 283 274 276 279 286 266 280 283 280 281
130 131 131 138 148 149 155 139 145 117 102 118 157 160 192 177 214 191 183 173 206 122 144 133 112 165 182 109 140 116 126 147 217 236 235 237 195 196 214 223 217 261 280 270 274 281 286 290 284 272 269 276 277 286
105 106 110 114 124 138 135 137 119 61 117 130 134 186 194 205 103 143 129 95 149 124 123 108 55 124 138 118 164 109 172 235 231 233 227 195 193 219 252 246 249 260 271 264 263 273 276 278 283 286 268 260 260 285
110 99 112 131 143 151 118 101 72 91 48 102 104 113 138 95 92 124 142 190 165 132 98 68 111 66 250 166 176 198 191 221 241 216 222 188 220 243 255 251 252 256 262 268 269 270 274 271 274 290 299 292 284 278
69 58 130 127 110 88 76 79 91 56 107 84 153 65 119 100 145 169 158 166 143 137 175 128 137 216 131 196 235 210 212 222 221 240 223 218 246 264 261 262 254 250 252 249 253 249 255 272 283 288 290 293 288 279
51 146 146 138 110 71 37 36 72 93 138 166 147 182 164 130 138 134 161 142 130 165 126 202 117 132 209 189 237 251 266 256 231 236 245 238 236 240 239 264 282 262 262 262 249 264 267 271 275 272 274 280 285 282
147 152 147 122 97 90 90 45 76 110 161 145 103 114 134 139 243 84 112 120 98 105 95 58 71 211 232 214 214 243 244 215 248 276 273 275 246 256 267 260 265 270 267 270 272 274 279 277 276 281 279 285 279 283
148 143 111 88 78 92 93 94 74 99 147 173 87 115 104 85 358 50 106 115 110 97 107 208 221 213 209 236 220 255 264 265 262 279 282 282 261 239 255 254 262 267 268 274 272 274 278 285 271 268 272 270 271 277
83 100 60 54 35 51 98 136 105 140 119 116 124 116 83 43 13 56 175 140 109 195 226 225 234 250 251 256 263 268 270 260 260 257 273 283 283 269 267 265 250 257 264 269 268 274 279 264 268 272 275 275 272 272
95 94 85 36 65 22 68 303 127 132 81 144 121 117 140 200 203 213 139 113 222 221 204 217 235 240 255 262 260 257 265 266 257 260 268 273 275 272 264 261 262 256 257 256 263 263 267 269 272 275 272 276 281 276
93 68 71 62 83 78 261 334 122 125 139 186 109 155 208 208 222 67 228 219 241 228 219 226 242 249 249 264 279 274 260 262 266 266 269 268 265 269 267 261 256 257 261 266 259 255 256 265 274 277 276 276 275 278
101 104 137 172 119 161 150 170 136 115 116 154 174 219 227 209 138 136 240 240 233 200 199 236 234 264 276 261 254 260 265 262 256 261 259 262 267 263 260 258 251 246 241 253 260 257 256 258 267 274 269 266 270 272
147 172 167 189 172 131 177 175 175 173 191 174 176 246 239 121 154 228 226 259 233 240 244 232 230 237 245 256 264 260 260 252 252 255 263 251 246 257 260 254 252 248 242 246 252 250 257 259 258 259 263 248 257 272
186 182 179 179 193 165 180 166 187 179 151 175 222 250 75 114 125 239 229 227 220 223 225 225 237 248 252 241 251 262 264 259 219 244 258 258 253 248 255 258 261 264 233 233 244 247 251 254 259 265 271 268 268 278
185 170 175 98 145 115 102 52 76 130 167 192 195 160 143 184 235 242 242 217 209 226 225 233 231 236 247 261 263 261 264 260 245 256 268 268 259 249 241 249 259 264 270 259 220 231 245 256 263 270 277 276 244 258
158 183 175 169 125 139 138 166 167 193 200 181 116 175 187 200 227 228 212 236 215 236 235 244 235 237 253 260 266 272 271 266 269 270 271 266 259 260 263 258 257 265 265 264 261 255 255 260 264 268 269 268 269 262
167 172 118 124 110 186 202 188 205 218 188 158 174 210 226 225 240 215 263 255 217 187 246 264 271 254 255 257 256 255 255 255 258 263 265 267 279 272 253 253 250 253 252 255 260 256 254 252 256 259 258 260 260 261
183 180 103 140 162 205 222 188 222 218 173 189 201 314 290 279 262 261 245 265 263 259 260 263 267 263 266 270 274 273 254 247 236 238 256 264 262 270 271 256 247 250 246 239 245 248 254 265 278 288 281 274 268 270
124 119 117 150 217 226 229 190 313 259 326 225 213 208 251 273 287 273 247 250 254 257 259 265 262 252 251 256 253 268 281 254 228 243 247 257 264 268 270 267 263 258 248 235 238 247 248 248 226 242 253 257 260 269
145 184 171 186 249 263 14 165 192 197 239 189 252 147 327 23 258 275 229 215 230 239 247 247 246 252 243 243 247 245 255 276 283 278 282 279 276 271 260 257 259 258 252 236 235 240 235 223 230 238 251 254 258 261
73 45 28 327 316 307 288 118 25 309 318 265 251 218 204 192 242 260 296 203 199 219 232 238 240 242 239 235 244 247 257 262 272 286 294 296 296 291 287 262 243 236 230 230 235 234 215 219 236 244 244 247 257 260